| time (UTC) | temp F | wind direction | speed MPH | gust MPH | rain 1hr in | rain 24hr in | rain mn in | humidity % | barometer mb |
| 20260509161526 | 50 | 184 | 0.0 | 1.0 | 0.01 | 0.34 | 0.34 | 93 | 1009.2 |
| 20260509160028 | 49 | 167 | 0.0 | 2.0 | 0.01 | 0.34 | 0.34 | 93 | 1009.4 |
| 20260509154526 | 50 | 152 | 0.0 | 1.0 | 0.02 | 0.34 | 0.34 | 94 | 1009.5 |
| 20260509153024 | 49 | 128 | 0.0 | 4.0 | 0.04 | 0.34 | 0.34 | 94 | 1009.6 |
| 20260509151523 | 49 | 153 | 0.0 | 4.0 | 0.04 | 0.33 | 0.33 | 94 | 1009.9 |
| 20260509150027 | 49 | 155 | 0.0 | 3.0 | 0.05 | 0.33 | 0.33 | 94 | 1010.0 |
| 20260509144528 | 48 | 127 | 0.0 | 3.0 | 0.05 | 0.32 | 0.32 | 94 | 1010.2 |
| 20260509143030 | 48 | 140 | 0.0 | 4.0 | 0.04 | 0.30 | 0.30 | 94 | 1010.2 |
| 20260509141526 | 48 | 201 | 0.0 | 3.0 | 0.04 | 0.29 | 0.29 | 94 | 1010.2 |
| 20260509140024 | 47 | 208 | 0.0 | 1.0 | 0.05 | 0.28 | 0.28 | 94 | 1010.2 |
| 20260509134512 | 47 | 174 | 0.0 | 2.0 | 0.06 | 0.27 | 0.27 | 94 | 1010.2 |
| 20260509133015 | 47 | 186 | 0.0 | 1.0 | 0.07 | 0.26 | 0.26 | 94 | 1010.3 |
| 20260509131504 | 47 | 129 | 0.0 | 1.0 | 0.08 | 0.25 | 0.25 | 94 | 1010.4 |
| 20260509130011 | 47 | 136 | 0.0 | 1.0 | 0.07 | 0.23 | 0.23 | 94 | 1010.5 |
| 20260509124507 | 47 | 136 | 0.0 | 1.0 | 0.07 | 0.21 | 0.21 | 94 | 1010.5 |
| 20260509123013 | 47 | 129 | 0.0 | 0.0 | 0.06 | 0.19 | 0.19 | 94 | 1010.6 |
| 20260509121521 | 47 | 129 | 0.0 | 1.0 | 0.05 | 0.17 | 0.17 | 94 | 1010.6 |
| 20260509120012 | 46 | 152 | 0.0 | 1.0 | 0.05 | 0.16 | 0.16 | 94 | 1010.7 |
| 20260509114504 | 46 | 127 | 0.0 | 1.0 | 0.05 | 0.14 | 0.14 | 94 | 1010.6 |
| 20260509113013 | 46 | 146 | 0.0 | 1.0 | 0.07 | 0.13 | 0.13 | 93 | 1010.7 |
| 20260509111516 | 46 | 135 | 0.0 | 2.0 | 0.07 | 0.12 | 0.12 | 93 | 1010.6 |
| 20260509110019 | 46 | 154 | 0.0 | 2.0 | 0.07 | 0.11 | 0.11 | 93 | 1010.4 |
| 20260509104503 | 46 | 132 | 0.0 | 1.0 | 0.05 | 0.09 | 0.09 | 93 | 1010.5 |
| 20260509103008 | 46 | 198 | 0.0 | 1.0 | 0.03 | 0.06 | 0.06 | 93 | 1010.6 |
| 20260509101512 | 46 | 171 | 0.0 | 0.0 | 0.02 | 0.05 | 0.05 | 93 | 1010.4 |
| 20260509100017 | 46 | 176 | 0.0 | 1.0 | 0.01 | 0.04 | 0.04 | 93 | 1010.4 |
| 20260509094522 | 46 | 131 | 0.0 | 1.0 | 0.02 | 0.04 | 0.04 | 93 | 1010.3 |
| 20260509093004 | 46 | 140 | 0.0 | 0.0 | 0.01 | 0.03 | 0.03 | 93 | 1010.4 |
| 20260509091518 | 46 | 141 | 0.0 | 1.0 | 0.01 | 0.03 | 0.03 | 92 | 1010.3 |
| 20260509090012 | 46 | 149 | 0.0 | 0.0 | 0.01 | 0.03 | 0.03 | 92 | 1010.4 |
| 20260509084526 | 46 | 127 | 0.0 | 1.0 | 0.00 | 0.02 | 0.02 | 92 | 1010.5 |
| 20260509083022 | 45 | 115 | 0.0 | 1.0 | 0.00 | 0.02 | 0.02 | 92 | 1010.6 |
| 20260509081505 | 45 | 32 | 0.0 | 0.0 | 0.00 | 0.02 | 0.02 | 92 | 1010.9 |
| 20260509080021 | 43 | 32 | 0.0 | 0.0 | 0.00 | 0.02 | 0.02 | 91 | 1011.0 |
| 20260509074514 | 43 | 32 | 0.0 | 0.0 | 0.01 | 0.02 | 0.02 | 91 | 1011.0 |
| 20260509073037 | 44 | 32 | 0.0 | 0.0 | 0.01 | 0.02 | 0.02 | 91 | 1010.9 |
| 20260509071522 | 43 | 32 | 0.0 | 0.0 | 0.02 | 0.02 | 0.02 | 90 | 1010.8 |
| 20260509070008 | 43 | 32 | 0.0 | 0.0 | 0.02 | 0.02 | 0.02 | 89 | 1010.8 |
| 20260509064510 | 43 | 32 | 0.0 | 0.0 | 0.01 | 0.01 | 0.01 | 88 | 1010.9 |
| 20260509061523 | 44 | 32 | 0.0 | 0.0 | 0.00 | 0.00 | 0.00 | 83 | 1011.3 |
| 20260509060026 | 44 | 32 | 0.0 | 0.0 | 0.00 | 0.00 | 0.00 | 81 | 1011.4 |
| 20260509054534 | 44 | 32 | 0.0 | 0.0 | 0.00 | 0.00 | 0.00 | 80 | 1011.5 |
| 20260509053013 | 44 | 32 | 0.0 | 0.0 | 0.00 | 0.00 | 0.00 | 78 | 1011.6 |
| 20260509051520 | 43 | 32 | 0.0 | 0.0 | 0.00 | 0.00 | 0.00 | 77 | 1011.5 |
| 20260509050032 | 43 | 32 | 0.0 | 0.0 | 0.00 | 0.00 | 0.00 | 77 | 1011.4 |
| 20260509044524 | 44 | 32 | 0.0 | 0.0 | 0.00 | 0.00 | 0.00 | 77 | 1011.6 |
| 20260509043039 | 44 | 32 | 0.0 | 1.0 | 0.00 | 0.00 | 0.00 | 74 | 1011.8 |
| 20260509041514 | 43 | 32 | 0.0 | 0.0 | 0.00 | 0.00 | 0.00 | 73 | 1011.8 |
| 20260509040019 | 43 | 32 | 0.0 | 0.0 | 0.00 | 0.00 | 0.00 | 73 | 1011.9 |
| 20260509034524 | 43 | 32 | 0.0 | 0.0 | 0.00 | 0.00 | 0.00 | 76 | 1011.8 |
| 20260509033027 | 42 | 32 | 0.0 | 0.0 | 0.00 | 0.00 | 0.00 | 76 | 1011.8 |
| 20260509031531 | 42 | 32 | 0.0 | 0.0 | 0.00 | 0.00 | 0.00 | 75 | 1011.8 |
| 20260509030025 | 42 | 32 | 0.0 | 0.0 | 0.00 | 0.00 | 0.00 | 74 | 1012.0 |
| 20260509024524 | 42 | 32 | 0.0 | 0.0 | 0.00 | 0.00 | 0.00 | 73 | 1012.1 |
| 20260509023028 | 43 | 32 | 0.0 | 0.0 | 0.00 | 0.00 | 0.00 | 72 | 1011.9 |
| 20260509021526 | 44 | 32 | 0.0 | 0.0 | 0.00 | 0.00 | 0.00 | 72 | 1011.9 |
| 20260509020026 | 44 | 32 | 0.0 | 0.0 | 0.00 | 0.00 | 0.00 | 70 | 1012.0 |
| 20260509014522 | 44 | 32 | 0.0 | 0.0 | 0.00 | 0.00 | 0.00 | 70 | 1011.9 |
| 20260509013041 | 45 | 32 | 0.0 | 0.0 | 0.00 | 0.00 | 0.00 | 68 | 1011.9 |
| 20260509011527 | 46 | 32 | 0.0 | 0.0 | 0.00 | 0.00 | 0.00 | 69 | 1011.8 |
| 20260509010027 | 46 | 32 | 0.0 | 0.0 | 0.00 | 0.00 | 0.00 | 66 | 1011.5 |
| 20260509004549 | 46 | 32 | 0.0 | 0.0 | 0.00 | 0.00 | 0.00 | 66 | 1011.3 |
| 20260509003029 | 47 | 32 | 0.0 | 0.0 | 0.00 | 0.00 | 0.00 | 63 | 1011.1 |
| 20260509001523 | 48 | 32 | 0.0 | 0.0 | 0.00 | 0.00 | 0.00 | 60 | 1011.0 |
| 20260509000025 | 50 | 32 | 0.0 | 0.0 | 0.00 | 0.00 | 0.00 | 60 | 1010.9 |
| 20260508234528 | 50 | 32 | 0.0 | 0.0 | 0.00 | 0.00 | 0.00 | 57 | 1010.8 |
| 20260508233028 | 51 | 32 | 0.0 | 0.0 | 0.00 | 0.00 | 0.00 | 54 | 1010.5 |
| 20260508231522 | 52 | 32 | 0.0 | 0.0 | 0.00 | 0.00 | 0.00 | 52 | 1010.5 |
| 20260508230038 | 53 | 32 | 0.0 | 2.0 | 0.00 | 0.00 | 0.00 | 48 | 1010.4 |
| 20260508224508 | 52 | 149 | 0.0 | 2.0 | 0.00 | 0.00 | 0.00 | 49 | 1010.6 |
| 20260508223017 | 52 | 38 | 0.0 | 3.0 | 0.00 | 0.00 | 0.00 | 48 | 1010.5 |
| 20260508221512 | 53 | 59 | 0.0 | 3.0 | 0.00 | 0.00 | 0.00 | 50 | 1010.4 |
| 20260508220015 | 52 | 84 | 0.0 | 2.0 | 0.00 | 0.00 | 0.00 | 48 | 1010.6 |
| 20260508214512 | 52 | 5 | 0.0 | 2.0 | 0.00 | 0.00 | 0.00 | 52 | 1010.7 |
| 20260508213011 | 52 | 348 | 0.0 | 2.0 | 0.00 | 0.00 | 0.00 | 49 | 1010.7 |
| 20260508211513 | 53 | 352 | 0.0 | 3.0 | 0.00 | 0.00 | 0.00 | 47 | 1010.7 |
| 20260508210012 | 53 | 267 | 1.0 | 6.0 | 0.00 | 0.00 | 0.00 | 49 | 1010.8 |
| 20260508203015 | 52 | 274 | 1.0 | 4.0 | 0.00 | 0.00 | 0.00 | 48 | 1011.1 |
| 20260508201515 | 53 | 32 | 2.0 | 5.0 | 0.00 | 0.00 | 0.00 | 48 | 1011.1 |
| 20260508200017 | 53 | 277 | 0.0 | 8.0 | 0.00 | 0.00 | 0.00 | 49 | 1011.3 |
| 20260508194518 | 53 | 65 | 0.0 | 7.0 | 0.00 | 0.00 | 0.00 | 51 | 1011.3 |
| 20260508193016 | 52 | 32 | 1.0 | 8.0 | 0.00 | 0.00 | 0.00 | 55 | 1011.6 |
| 20260508191517 | 52 | 267 | 1.0 | 9.0 | 0.00 | 0.00 | 0.00 | 53 | 1011.7 |
| 20260508190017 | 51 | 277 | 6.0 | 12.0 | 0.00 | 0.00 | 0.00 | 54 | 1011.9 |
| 20260508184535 | 51 | 259 | 3.0 | 10.0 | 0.00 | 0.00 | 0.00 | 55 | 1012.2 |
| 20260508183018 | 51 | 267 | 2.0 | 4.0 | 0.00 | 0.00 | 0.00 | 60 | 1012.3 |
| 20260508181536 | 49 | 288 | 0.0 | 6.0 | 0.00 | 0.00 | 0.00 | 62 | 1012.4 |
| 20260508180016 | 50 | 296 | 1.0 | 7.0 | 0.00 | 0.00 | 0.00 | 60 | 1012.4 |
| 20260508174519 | 49 | 260 | 1.0 | 7.0 | 0.00 | 0.00 | 0.00 | 69 | 1012.4 |
| 20260508173018 | 46 | 178 | 1.0 | 3.0 | 0.00 | 0.00 | 0.00 | 72 | 1012.6 |
| 20260508171520 | 44 | 244 | 0.0 | 6.0 | 0.00 | 0.00 | 0.00 | 71 | 1012.6 |
| 20260508170028 | 44 | 347 | 0.0 | 4.0 | 0.00 | 0.00 | 0.00 | 75 | 1012.7 |
| 20260508164520 | 44 | 15 | 0.0 | 3.0 | 0.00 | 0.00 | 0.00 | 75 | 1012.8 |
| 20260508163020 | 43 | 41 | 0.0 | 7.0 | 0.00 | 0.00 | 0.00 | 78 | 1012.8 |